Powrót do katalogu

CZ-3B DEB

AktywnyGTO
NORAD 40158·DEBRIS·🇨🇳 China

Wystrzelony Sep 4, 2010 z Xichang Satellite Launch Center

Loading…

TLE

NieaktualneSource: Space-Track

Epoka: Sep 7, 2026, 00:23 UTC

1 40158U 10042K   26250.01644302 -.00000104  00000-0  00000-0 0  9996
2 40158  25.3885 193.7018 7328209 116.1327 355.1952  1.88761202 88294

Śledź CZ-3B DEB w czasie rzeczywistym z AllMySat

Download on the App Store